Location: ?????
(38.2579°N, 22.9711°E)
Time: 14:03:46
(UTC+00:00)

BREEZE-M DEB (TANK) - Pass Details

Date: 13 December 2025
Orbit: 359 x 15939 km, 49.4° (Epoch: 17 January)

Event Time Altitude Azimuth Distance (km) Brightness Sun altitude
Rises 17:23:21 0° 295° (WNW) 10,849 9.7 -25.7°
Reaches altitude 10° 17:34:37 10° 300° (WNW) 7,152 8.5 -27.9°
Enters shadow 17:49:55 57° 11° (NNE) 1,363 4.0 -30.8°
